Location: Cuguron
(43.0994°N, 0.5363°E)
Time: 07:26:49
(UTC+00:00)

Cosmos 2333 Rocket - Pass Details

Date: 15 May 2026
Orbit: 840 x 862 km, 70.8° (Epoch: 6 June)

Event Time Altitude Azimuth Distance (km) Brightness Sun altitude
Rises 19:52:00 0° 343° (NNW) 3,421 6.3 -6.7°
Reaches altitude 10° 19:54:56 10° 357° (N) 2,485 5.2 -7.1°
Maximum altitude 19:59:32 24° 51° (NE) 1,682 3.6 -7.8°
Drops below altitude 10° 20:04:08 10° 105° (ESE) 2,486 4.1 -8.5°
Enters shadow 20:04:29 - 107° (ESE) 2,591 4.1 -8.6°
